FW3855 Weather Reports


Display with metric or nautical units.
time (UTC)temp
F
wind
direction
speed
MPH
gust
MPH
rain 1hr
in
rain 24hr
in
rain mn
in
humidity
%
barometer
mb
20260510063103 78 201 5.0 10.0 0.00 0.00 0.00 5 1015.9
20260510062557 78 209 4.0 10.0 0.00 0.00 0.00 5 1015.9
20260510062051 78 201 4.0 11.0 0.00 0.00 0.00 5 1015.9
20260510061545 78 159 4.0 11.0 0.00 0.00 0.00 5 1015.9
20260510061038 78 170 4.0 10.0 0.00 0.00 0.00 5 1015.8
20260510060533 78 204 3.0 9.0 0.00 0.00 0.00 5 1015.8
20260510060028 78 230 4.0 9.0 0.00 0.00 0.00 5 1015.8
20260510055017 77 208 3.0 10.0 0.00 0.00 0.00 6 1015.9
20260510054508 77 214 4.0 9.0 0.00 0.00 0.00 6 1015.9
20260510054003 77 272 3.0 10.0 0.00 0.00 0.00 6 1015.9
20260510053457 77 252 3.0 10.0 0.00 0.00 0.00 5 1016.0
20260510052950 77 120 3.0 9.0 0.00 0.00 0.00 5 1016.0
20260510052447 77 170 2.0 9.0 0.00 0.00 0.00 5 1016.0
20260510051939 77 262 2.0 7.0 0.00 0.00 0.00 5 1016.0
20260510051435 78 244 2.0 7.0 0.00 0.00 0.00 5 1015.9
20260510050927 78 206 2.0 7.0 0.00 0.00 0.00 4 1015.9
20260510050420 78 249 3.0 7.0 0.00 0.00 0.00 4 1015.9
20260510045914 78 230 3.0 8.0 0.00 0.00 0.00 2 1015.9
20260510045409 78 217 4.0 7.0 0.00 0.00 0.00 2 1015.8
20260510044903 79 179 4.0 8.0 0.00 0.00 0.00 2 1015.8
20260510044357 79 212 5.0 8.0 0.00 0.00 0.00 2 1015.8
20260510043347 79 233 5.0 8.0 0.00 0.00 0.00 1 1015.8
20260510042841 79 250 5.0 8.0 0.00 0.00 0.00 1 1015.8
20260510042333 78 241 4.0 8.0 0.00 0.00 0.00 2 1015.7
20260510041826 78 214 4.0 8.0 0.00 0.00 0.00 2 1015.7
20260510041321 79 224 4.0 9.0 0.00 0.00 0.00 2 1015.6
20260510040310 79 235 3.0 8.0 0.00 0.00 0.00 1 1015.6
20260510035805 79 242 2.0 4.0 0.00 0.00 0.00 1 1015.4
20260510035256 79 244 1.0 4.0 0.00 0.00 0.00 1 1015.3
20260510034247 78 284 1.0 4.0 0.00 0.00 0.00 2 1015.3
20260510033738 79 198 2.0 6.0 0.00 0.00 0.00 2 1015.2
20260510032733 78 252 2.0 6.0 0.00 0.00 0.00 2 1015.1
20260510032233 78 231 2.0 6.0 0.00 0.00 0.00 2 1015.0
20260510031737 79 181 2.0 5.0 0.00 0.00 0.00 2 1015.0
20260510031231 78 220 2.0 4.0 0.00 0.00 0.00 2 1015.0
20260510030731 78 190 2.0 4.0 0.00 0.00 0.00 3 1014.9
20260510030232 78 224 1.0 3.0 0.00 0.00 0.00 3 1014.9
20260510025729 79 238 1.0 4.0 0.00 0.00 0.00 3 1014.8
20260510025229 80 219 1.0 4.0 0.00 0.00 0.00 3 1014.6
20260510024730 80 248 1.0 5.0 0.00 0.00 0.00 3 1014.5
20260510024229 81 297 2.0 5.0 0.00 0.00 0.00 3 1014.5
20260510023230 82 297 2.0 9.0 0.00 0.00 0.00 2 1014.5
20260510022731 82 251 2.0 9.0 0.00 0.00 0.00 2 1014.4
20260510022230 82 285 1.0 5.0 0.00 0.00 0.00 3 1014.3
20260510021726 82 239 1.0 4.0 0.00 0.00 0.00 2 1014.3
20260510021227 82 278 1.0 4.0 0.00 0.00 0.00 2 1014.3
20260510020725 83 204 1.0 4.0 0.00 0.00 0.00 2 1014.3
20260510020227 83 228 2.0 5.0 0.00 0.00 0.00 2 1014.3
20260510015223 85 231 2.0 6.0 0.00 0.00 0.00 1 1014.2
20260510014724 86 292 2.0 6.0 0.00 0.00 0.00 1 1014.2
20260510014223 87 245 2.0 6.0 0.00 0.00 0.00 1 1014.2
20260510012221 88 279 3.0 10.0 0.00 0.00 0.00 1 1014.0
20260510011719 87 278 4.0 12.0 0.00 0.00 0.00 1 1014.1
20260510011223 88 340 3.0 12.0 0.00 0.00 0.00 1 1014.1
20260510010719 88 255 3.0 11.0 0.00 0.00 0.00 1 1014.0
20260510010221 89 286 3.0 11.0 0.00 0.00 0.00 1 1014.1
20260510005719 89 275 2.0 6.0 0.00 0.00 0.00 1 1014.1
20260510005223 89 293 2.0 8.0 0.00 0.00 0.00 1 1014.1
20260510004719 89 321 3.0 9.0 0.00 0.00 0.00 1 1014.1
20260510004219 89 219 3.0 9.0 0.00 0.00 0.00 1 1014.1
20260510003719 89 179 4.0 8.0 0.00 0.00 0.00 1 1014.0
20260510003219 89 188 4.0 10.0 0.00 0.00 0.00 1 1014.0
20260510002719 89 294 4.0 10.0 0.00 0.00 0.00 1 1014.0
20260510001721 90 136 3.0 13.0 0.00 0.00 0.00 1 1014.0
20260510000719 90 211 5.0 13.0 0.00 0.00 0.00 1 1014.0
20260510000221 89 238 5.0 13.0 0.00 0.00 0.00 1 1013.8
20260509235719 89 260 6.0 13.0 0.00 0.00 0.00 1 1014.0
20260509235219 89 200 5.0 15.0 0.00 0.00 0.00 1 1014.1
20260509234718 89 254 3.0 15.0 0.00 0.00 0.00 1 1014.1
20260509234214 90 290 4.0 11.0 0.00 0.00 0.00 1 1014.2
20260509233714 90 293 4.0 11.0 0.00 0.00 0.00 1 1014.3
20260509233214 90 273 3.0 10.0 0.00 0.00 0.00 1 1014.2
20260509232714 90 204 4.0 15.0 0.00 0.00 0.00 1 1014.1
20260509232212 90 282 5.0 15.0 0.00 0.00 0.00 1 1014.2
20260509231713 90 231 5.0 14.0 0.00 0.00 0.00 1 1014.2
20260509231210 91 195 4.0 14.0 0.00 0.00 0.00 1 1014.2
20260509230710 90 262 5.0 18.0 0.00 0.00 0.00 1 1014.2
20260509230203 89 150 6.0 18.0 0.00 0.00 0.00 1 1014.2
20260509225657 90 213 5.0 12.0 0.00 0.00 0.00 1 1014.2
20260509225151 90 203 6.0 17.0 0.00 0.00 0.00 1 1014.1
20260509224646 90 141 7.0 19.0 0.00 0.00 0.00 1 1014.3
20260509224141 89 143 6.0 19.0 0.00 0.00 0.00 1 1014.2
20260509223634 89 265 5.0 13.0 0.00 0.00 0.00 1 1014.2
20260509223127 89 288 4.0 15.0 0.00 0.00 0.00 1 1014.3
20260509222622 90 274 5.0 15.0 0.00 0.00 0.00 1 1014.4
20260509222116 89 293 5.0 13.0 0.00 0.00 0.00 1 1014.5
20260509220616 89 305 6.0 23.0 0.00 0.00 0.00 1 1014.6
20260509220112 90 196 7.0 23.0 0.00 0.00 0.00 1 1014.8
20260509215114 90 301 4.0 13.0 0.00 0.00 0.00 1 1014.9
20260509214614 90 290 2.0 8.0 0.00 0.00 0.00 1 1014.9
20260509213610 89 229 5.0 11.0 0.00 0.00 0.00 1 1015.2
20260509213114 89 252 6.0 14.0 0.00 0.00 0.00 1 1015.1
20260509212611 89 267 5.0 14.0 0.00 0.00 0.00 1 1015.2
20260509212111 91 246 4.0 15.0 0.00 0.00 0.00 1 1015.2
20260509211611 89 324 5.0 15.0 0.00 0.00 0.00 1 1015.1
20260509211110 90 306 5.0 14.0 0.00 0.00 0.00 1 1015.2
20260509210114 89 225 6.0 14.0 0.00 0.00 0.00 1 1015.3
20260509205608 89 281 7.0 15.0 0.00 0.00 0.00 1 1015.4
20260509205100 89 300 6.0 15.0 0.00 0.00 0.00 1 1015.3
20260509204556 89 281 5.0 13.0 0.00 0.00 0.00 1 1015.4
20260509204047 89 299 6.0 15.0 0.00 0.00 0.00 1 1015.6
20260509203542 89 346 6.0 15.0 0.00 0.00 0.00 1 1015.7
20260509202530 89 196 5.0 15.0 0.00 0.00 0.00 1 1015.6
20260509202024 89 305 5.0 15.0 0.00 0.00 0.00 1 1015.7
20260509201519 89 221 5.0 14.0 0.00 0.00 0.00 1 1015.7
20260509201012 89 264 7.0 21.0 0.00 0.00 0.00 1 1015.8
20260509200507 89 194 7.0 21.0 0.00 0.00 0.00 1 1015.7
20260509195959 89 125 5.0 17.0 0.00 0.00 0.00 1 1015.8
20260509195454 89 322 5.0 13.0 0.00 0.00 0.00 1 1015.7
20260509194441 89 264 4.0 18.0 0.00 0.00 0.00 1 1015.8
20260509193935 88 210 4.0 18.0 0.00 0.00 0.00 1 1015.8
20260509192923 89 316 5.0 16.0 0.00 0.00 0.00 1 1016.1
20260509191911 89 250 3.0 9.0 0.00 0.00 0.00 1 1016.0
20260509191406 88 246 3.0 9.0 0.00 0.00 0.00 1 1016.0
20260509190900 89 228 4.0 10.0 0.00 0.00 0.00 1 1016.0
20260509190354 88 298 6.0 12.0 0.00 0.00 0.00 1 1016.2
20260509185847 89 299 5.0 12.0 0.00 0.00 0.00 1 1016.1
20260509184835 88 173 4.0 13.0 0.00 0.00 0.00 2 1016.4
20260509184329 88 29 4.0 9.0 0.00 0.00 0.00 2 1016.1
20260509183824 87 200 4.0 12.0 0.00 0.00 0.00 1 1016.2
20260509183320 87 240 4.0 12.0 0.00 0.00 0.00 1 1016.4
20260509182812 87 300 4.0 9.0 0.00 0.00 0.00 3 1016.2
20260509182307 87 150 4.0 13.0 0.00 0.00 0.00 2 1016.4
20260509181800 87 293 4.0 13.0 0.00 0.00 0.00 2 1016.5
20260509180748 86 276 5.0 14.0 0.00 0.00 0.00 3 1016.7
20260509175735 87 343 4.0 10.0 0.00 0.00 0.00 2 1016.8
20260509175230 87 11 3.0 10.0 0.00 0.00 0.00 2 1016.8
20260509174724 86 189 4.0 10.0 0.00 0.00 0.00 2 1016.7
20260509174218 85 248 4.0 10.0 0.00 0.00 0.00 3 1016.7
20260509173718 85 291 4.0 10.0 0.00 0.00 0.00 3 1016.9
20260509172716 85 198 4.0 10.0 0.00 0.00 0.00 3 1016.8
20260509172214 86 345 4.0 10.0 0.00 0.00 0.00 3 1016.8
20260509171214 84 27 3.0 8.0 0.00 0.00 0.00 4 1016.7
20260509170715 85 25 3.0 8.0 0.00 0.00 0.00 4 1016.7
20260509170214 85 57 3.0 7.0 0.00 0.00 0.00 3 1016.7
20260509165714 85 343 3.0 9.0 0.00 0.00 0.00 3 1016.7
20260509165211 85 350 3.0 9.0 0.00 0.00 0.00 4 1016.7
20260509164710 84 31 3.0 7.0 0.00 0.00 0.00 4 1016.7
20260509164210 85 342 3.0 8.0 0.00 0.00 0.00 4 1016.6
20260509163713 84 304 3.0 8.0 0.00 0.00 0.00 4 1016.5
20260509163208 84 77 3.0 6.0 0.00 0.00 0.00 4 1016.5
20260509162707 84 358 4.0 9.0 0.00 0.00 0.00 4 1016.6
20260509162208 84 94 4.0 9.0 0.00 0.00 0.00 4 1016.7
20260509161707 84 6 3.0 7.0 0.00 0.00 0.00 4 1016.6
20260509161208 83 33 4.0 7.0 0.00 0.00 0.00 4 1016.7
20260509160702 83 14 3.0 7.0 0.00 0.00 0.00 4 1016.7
20260509160154 83 359 3.0 7.0 0.00 0.00 0.00 4 1016.7
20260509155654 82 73 3.0 7.0 0.00 0.00 0.00 5 1016.8
20260509154656 82 349 3.0 6.0 0.00 0.00 0.00 5 1016.7
20260509154153 82 0 3.0 7.0 0.00 0.00 0.00 4 1016.7
20260509153652 82 12 3.0 7.0 0.00 0.00 0.00 5 1016.7
20260509152650 83 113 2.0 6.0 0.00 0.00 0.00 4 1016.6
20260509152151 83 83 2.0 4.0 0.00 0.00 0.00 4 1016.5
20260509151650 83 104 2.0 6.0 0.00 0.00 0.00 4 1016.5
20260509151152 82 90 3.0 6.0 0.00 0.00 0.00 5 1016.5
20260509150652 82 105 3.0 6.0 0.00 0.00 0.00 5 1016.5
20260509150151 82 110 3.0 6.0 0.00 0.00 0.00 5 1016.5
20260509145651 82 86 2.0 5.0 0.00 0.00 0.00 5 1016.5
20260509145151 82 93 2.0 5.0 0.00 0.00 0.00 5 1016.5
20260509144652 82 101 3.0 6.0 0.00 0.00 0.00 5 1016.5
20260509144150 81 71 3.0 6.0 0.00 0.00 0.00 5 1016.4
20260509143650 81 166 3.0 6.0 0.00 0.00 0.00 5 1016.4
20260509143151 81 139 2.0 6.0 0.00 0.00 0.00 5 1016.5
20260509142648 81 129 2.0 6.0 0.00 0.00 0.00 6 1016.2
20260509141647 80 165 3.0 6.0 0.00 0.00 0.00 6 1016.2
20260509135648 81 158 0.0 3.0 0.00 0.00 0.00 6 1016.2
20260509134149 78 198 0.0 2.0 0.00 0.00 0.00 8 1016.0
20260509133644 77 182 0.0 2.0 0.00 0.00 0.00 8 1015.9
20260509133146 75 194 0.0 1.0 0.00 0.00 0.00 9 1015.9
20260509132645 75 194 0.0 4.0 0.00 0.00 0.00 9 1015.9
20260509132143 74 193 1.0 4.0 0.00 0.00 0.00 9 1015.9
20260509131644 73 165 2.0 5.0 0.00 0.00 0.00 10 1015.9
20260509131147 72 172 2.0 5.0 0.00 0.00 0.00 11 1015.7
20260509130646 69 149 1.0 4.0 0.00 0.00 0.00 12 1015.7
20260509130144 69 196 1.0 4.0 0.00 0.00 0.00 12 1015.8
20260509125646 69 195 0.0 3.0 0.00 0.00 0.00 12 1015.7
20260509125144 68 141 0.0 2.0 0.00 0.00 0.00 12 1015.7
20260509124641 69 183 0.0 0.0 0.00 0.00 0.00 11 1015.7
20260509122635 70 176 1.0 4.0 0.00 0.00 0.00 10 1015.6
20260509122132 71 160 2.0 4.0 0.00 0.00 0.00 10 1015.4
20260509121634 71 167 2.0 4.0 0.00 0.00 0.00 10 1015.4
20260509121129 72 172 2.0 7.0 0.00 0.00 0.00 10 1015.4
20260509115632 74 133 2.0 9.0 0.00 0.00 0.00 9 1015.4
20260509115130 75 281 3.0 9.0 0.00 0.00 0.00 9 1015.4
20260509114630 75 269 4.0 9.0 0.00 0.00 0.00 9 1015.3
20260509113629 75 237 4.0 10.0 0.00 0.00 0.00 9 1015.4
20260509113134 75 245 4.0 8.0 0.00 0.00 0.00 9 1015.3
20260509112630 75 230 3.0 8.0 0.00 0.00 0.00 9 1015.4
20260509112122 75 195 2.0 8.0 0.00 0.00 0.00 9 1015.4
20260509111615 74 174 2.0 6.0 0.00 0.00 0.00 9 1015.4
20260509111111 74 263 2.0 6.0 0.00 0.00 0.00 8 1015.4
20260509110607 74 205 2.0 9.0 0.00 0.00 0.00 8 1015.6
20260509110058 75 201 3.0 11.0 0.00 0.00 0.00 8 1015.4
20260509105551 75 264 4.0 11.0 0.00 0.00 0.00 8 1015.4
20260509105048 75 248 4.0 11.0 0.00 0.00 0.00 8 1015.4
20260509104540 75 189 4.0 11.0 0.00 0.00 0.00 8 1015.3
20260509104034 75 147 4.0 12.0 0.00 0.00 0.00 8 1015.4
20260509103528 75 192 4.0 12.0 0.00 0.00 0.00 8 1015.6
20260509103022 75 212 4.0 11.0 0.00 0.00 0.00 8 1015.6
20260509102518 75 234 4.0 11.0 0.00 0.00 0.00 7 1015.6
20260509101504 76 172 6.0 16.0 0.00 0.00 0.00 7 1015.7
20260509100002 76 182 6.0 12.0 0.00 0.00 0.00 6 1015.7
20260509095449 75 198 4.0 9.0 0.00 0.00 0.00 6 1015.7
20260509094440 75 248 4.0 11.0 0.00 0.00 0.00 6 1015.7
20260509093418 75 305 3.0 9.0 0.00 0.00 0.00 6 1015.8
20260509092916 76 248 4.0 15.0 0.00 0.00 0.00 6 1015.8
20260509092407 76 219 4.0 16.0 0.00 0.00 0.00 6 1015.8
20260509091902 76 191 3.0 16.0 0.00 0.00 0.00 6 1015.8
20260509091354 76 217 3.0 11.0 0.00 0.00 0.00 6 1015.7
20260509090341 76 281 3.0 9.0 0.00 0.00 0.00 6 1015.8
20260509085835 76 218 3.0 8.0 0.00 0.00 0.00 5 1015.8
20260509085331 76 226 4.0 11.0 0.00 0.00 0.00 5 1015.8
20260509084836 76 226 5.0 14.0 0.00 0.00 0.00 5 1015.8
20260509083815 76 168 5.0 12.0 0.00 0.00 0.00 4 1015.8
20260509082758 77 208 6.0 12.0 0.00 0.00 0.00 4 1015.8
20260509082255 77 240 6.0 14.0 0.00 0.00 0.00 4 1015.8
20260509081754 77 140 6.0 15.0 0.00 0.00 0.00 4 1015.7
20260509081248 77 148 6.0 16.0 0.00 0.00 0.00 4 1015.8
20260509080739 77 200 6.0 16.0 0.00 0.00 0.00 4 1015.8
20260509080233 77 202 6.0 15.0 0.00 0.00 0.00 4 1015.8
20260509075728 77 244 6.0 18.0 0.00 0.00 0.00 4 1015.8
20260509075225 77 206 5.0 18.0 0.00 0.00 0.00 4 1015.9
20260509074712 77 196 5.0 12.0 0.00 0.00 0.00 3 1015.9
20260509074208 77 233 5.0 15.0 0.00 0.00 0.00 3 1015.9
20260509073702 77 282 5.0 15.0 0.00 0.00 0.00 3 1015.8
20260509073159 77 227 5.0 10.0 0.00 0.00 0.00 3 1015.9
20260509072652 77 184 5.0 12.0 0.00 0.00 0.00 3 1015.9
20260509072142 77 225 4.0 11.0 0.00 0.00 0.00 3 1015.9
20260509071636 77 154 3.0 9.0 0.00 0.00 0.00 3 1015.9
20260509070622 78 302 5.0 13.0 0.00 0.00 0.00 3 1015.9
20260509070127 78 221 5.0 13.0 0.00 0.00 0.00 3 1015.9
20260509065114 78 268 4.0 12.0 0.00 0.00 0.00 3 1015.9
20260509064109 78 215 5.0 11.0 0.00 0.00 0.00 3 1015.9